Weather History for Northeast Philadelphia, PA

Change the Weather History Date:

Thursday, March 29, 2012

  Actual Average Record
Temperature  
Mean Temperature 53 °F -  
Max Temperature 66 °F 55 °F 82 °F (1998)
Min Temperature 42 °F 37 °F 28 °F (2011)
Degree Days  
Heating Degree Days 12    
Growing Degree Days 3 (Base 50)    
Moisture  
Dew Point 34 °F    
Average Humidity 49    
Maximum Humidity 58    
Minimum Humidity 41    
Precipitation  
Precipitation 0.00 in - - ()
Sea Level Pressure  
Sea Level Pressure 29.84 in    
Wind  
Wind Speed 12 mph (NNW)    
Max Wind Speed 21 mph    
Max Gust Speed 30 mph    
Visibility 10 miles    
Events      
Averages and records for this station are not official NWS values.
T = Trace of Precipitation, MM = Missing Value Source: NWS Daily Summary

Daily Weather History Graph

Daily Weather History Graph

Search for Another Location

Airport:

Trip Planner

Search our weather history database for the weather conditions in past years. The results will help you decide how hot, cold, wet, or windy it might be!

Date:

Astronomy

Mar. 29, 2012 Rise Set
Actual Time 6:48 AM EDT 7:21 PM EDT
Civil Twilight 6:20 AM EDT 7:49 PM EDT
Nautical Twilight 5:48 AM EDT 8:21 PM EDT
Astronomical Twilight 5:15 AM EDT 8:54 PM EDT
Moon 10:54 AM EDT (3/29) 1:11 AM EDT (3/29)
Length of Visible Light 13h 28m
Length of Day
12h 33m
Waxing Crescent, 39% of the Moon is Illuminated
Mar 29
Waxing Crescent
Mar 30
First Quarter
Apr 6
Full
Apr 13
Last Quarter
Apr 21
New

Hourly Weather History & Observations

Time (EDT) Temp. Windchill Dew Point Humidity Pressure Visibility Wind Dir Wind Speed Gust Speed Precip Events Conditions
12:54 AM 63.0 °F - 48.0 °F 58% 29.62 in 10.0 mi West 6.9 mph - N/A   Overcast
1:54 AM 64.9 °F - 42.1 °F 43% 29.63 in 10.0 mi WNW 12.7 mph - N/A   Overcast
2:54 AM 60.1 °F - 43.0 °F 53% 29.65 in 10.0 mi North 8.1 mph - N/A   Overcast
3:54 AM 57.9 °F - 43.0 °F 58% 29.65 in 10.0 mi North 6.9 mph - N/A   Overcast
4:54 AM 57.0 °F - 42.1 °F 57% 29.67 in 10.0 mi NW 4.6 mph - N/A   Overcast
5:54 AM 55.9 °F - 39.9 °F 55% 29.70 in 10.0 mi NNW 16.1 mph 27.6 mph N/A   Overcast
6:54 AM 54.0 °F - 36.0 °F 51% 29.73 in 10.0 mi NW 12.7 mph 24.2 mph N/A   Overcast
7:54 AM 53.1 °F - 33.1 °F 47% 29.76 in 10.0 mi NW 17.3 mph 27.6 mph N/A   Clear
8:54 AM 52.0 °F - 33.1 °F 49% 29.79 in 10.0 mi NNW 18.4 mph 24.2 mph N/A   Overcast
9:54 AM 55.0 °F - 33.1 °F 43% 29.81 in 10.0 mi NW 20.7 mph 26.5 mph N/A   Mostly Cloudy
10:54 AM 55.0 °F - 34.0 °F 45% 29.83 in 10.0 mi NW 18.4 mph 29.9 mph N/A   Overcast
11:54 AM 54.0 °F - 33.1 °F 45% 29.85 in 10.0 mi NNW 18.4 mph 28.8 mph N/A   Mostly Cloudy
12:54 PM 55.0 °F - 34.0 °F 45% 29.86 in 10.0 mi NW 17.3 mph 28.8 mph N/A   Overcast
1:54 PM 55.0 °F - 33.1 °F 43% 29.87 in 10.0 mi NW 18.4 mph 25.3 mph N/A   Overcast
2:54 PM 55.0 °F - 32.0 °F 42% 29.87 in 10.0 mi NNW 19.6 mph 25.3 mph N/A   Overcast
3:54 PM 55.0 °F - 32.0 °F 42% 29.88 in 10.0 mi NNW 15.0 mph 24.2 mph N/A   Overcast
4:54 PM 52.0 °F - 30.9 °F 45% 29.91 in 10.0 mi North 17.3 mph 27.6 mph N/A   Overcast
5:54 PM 52.0 °F - 28.9 °F 41% 29.93 in 10.0 mi NNW 18.4 mph - N/A   Partly Cloudy
6:54 PM 50.0 °F - 30.0 °F 46% 29.95 in 10.0 mi North 17.3 mph 25.3 mph N/A   Scattered Clouds
7:54 PM 46.9 °F - 28.0 °F 48% 29.98 in 10.0 mi North 10.4 mph - N/A   Clear
8:54 PM 46.0 °F 40.2 °F 27.0 °F 47% 30.01 in 10.0 mi North 12.7 mph 21.9 mph N/A   Scattered Clouds
9:54 PM 44.1 °F 38.6 °F 28.0 °F 53% 30.05 in 10.0 mi NNW 10.4 mph - N/A   Partly Cloudy
10:54 PM 42.1 °F 37.7 °F 28.0 °F 58% 30.06 in 10.0 mi NNW 6.9 mph - N/A   Clear
11:54 PM 42.1 °F 37.1 °F 27.0 °F 55% 30.06 in 10.0 mi North 8.1 mph - N/A   Clear